Date,TemperatureHighF,TemperatureAvgF,TemperatureLowF,DewpointHighF,DewpointAvgF,DewpointLowF,HumidityHigh,HumidityAvg,HumidityLow,PressureMaxIn,PressureMinIn,WindSpeedMaxMPH,WindSpeedAvgMPH,GustSpeedMaxMPH,PrecipitationSumIn
2013-4-1,57.7,41.4,29.5,47.9,31.5,12.8,99,71,39,30.07,29.80,28,6,28,0.02
2013-4-2,40.5,31.5,25.3,15.7,11.8,8.8,55,44,32,30.22,30.05,27,8,27,0.00
2013-4-3,44.1,33.1,26.8,18.6,13.7,11.2,55,45,32,30.46,30.19,24,7,24,0.00
2013-4-4,59.7,40.7,25.2,28.3,20.4,12.0,69,46,29,30.53,30.21,21,5,24,0.00
2013-4-5,59.5,43.5,30.2,31.1,22.5,15.9,62,44,30,30.21,29.97,23,6,23,0.00
2013-4-6,55.2,37.7,27.5,20.6,13.1,3.9,61,38,22,30.47,30.17,28,6,28,0.00
2013-4-7,63.7,46.4,31.6,39.4,28.2,10.7,82,50,31,30.45,29.67,17,4,17,0.00
2013-4-8,70.2,53.8,39.9,46.3,40.5,35.9,88,63,42,29.82,29.71,15,3,15,0.00
2013-4-9,75.4,60.8,48.9,51.9,47.9,40.5,100,65,41,29.76,29.61,24,5,24,0.02
2013-4-10,65.7,53.2,48.7,56.8,51.2,43.6,100,94,72,29.81,29.57,17,1,17,0.54
2013-4-11,52.9,46.9,36.1,52.9,41.4,30.0,100,82,58,29.81,29.58,11,2,11,0.02
2013-4-12,39.2,37.5,35.6,39.2,36.9,34.0,100,97,88,29.81,29.50,12,2,12,0.70
2013-4-13,55.8,44.8,36.1,44.9,38.7,34.4,100,81,57,29.68,29.51,11,2,11,0.02
2013-4-14,51.6,41.9,34.9,37.7,32.0,28.8,95,70,48,29.95,29.66,18,4,18,0.00
2013-4-15,66.6,47.7,34.9,44.4,35.2,28.8,80,64,43,30.07,29.94,12,4,12,0.00
2013-4-16,59.2,51.6,42.1,59.2,47.4,34.2,100,86,67,30.07,29.84,11,3,11,0.13
2013-4-17,71.1,56.2,42.8,59.2,41.0,27.1,100,60,31,29.99,29.73,21,5,21,0.01
2013-4-18,61.7,48.9,39.6,50.2,39.1,30.9,100,70,47,29.96,29.72,12,3,12,0.00
2013-4-19,68.0,59.3,50.2,64.2,58.7,50.2,100,98,87,29.72,29.23,18,5,18,0.77
2013-4-20,56.5,46.5,34.5,54.0,34.4,18.5,100,66,39,29.91,29.32,19,5,19,0.20
2013-4-21,56.7,40.0,30.2,29.4,22.0,16.3,66,49,32,30.22,29.92,20,5,20,0.00
2013-4-22,61.0,44.4,30.7,33.9,27.4,20.3,74,53,32,30.29,30.09,17,3,17,0.00
2013-4-23,49.8,40.0,28.9,40.1,33.2,25.3,98,77,66,30.12,29.75,8,2,8,0.00
2013-4-24,77.4,54.5,32.9,56.1,45.6,32.9,100,76,47,29.75,29.40,13,3,13,0.00
2013-4-25,67.5,50.7,40.1,57.2,33.1,26.9,87,53,30,29.89,29.42,26,6,26,0.02
2013-4-26,63.5,48.7,35.6,40.0,33.2,27.5,76,56,39,30.05,29.89,14,4,14,0.00
2013-4-27,70.7,51.7,33.6,42.3,33.1,26.2,78,52,28,30.06,29.91,11,3,11,0.00
2013-4-28,74.8,56.8,40.5,47.9,39.1,31.3,74,53,36,29.93,29.78,13,3,13,0.00
2013-4-29,54.0,50.8,47.8,51.0,45.8,35.7,100,84,53,29.86,29.82,10,2,10,0.14
2013-4-30,75.0,56.3,45.9,52.5,45.7,35.7,100,72,39,29.94,29.84,9,2,9,0.01